星链-30603 (STARLINK-30603 )

导读 | 星芒AI

STARLINK-30603 是 SpaceX Starlink 卫星互联网项目中的一颗低轨通信卫星。它属于 Starlink 二代卫星群,旨在提供更高速、低延迟的全球互联网服务。该卫星采用先进推进系统和激光通信技术,以提升网络效率与稳定性。作为星座计划的一部分,STARLINK-30603 有助于扩展 Starlink 在偏远地区的覆盖能力,支持更多用户接入高速网络,同时推动 SpaceX 在全球卫星互联网市场的竞争力。

基本信息
目录编号:
58080
目录名称:
STARLINK-30603
国际标识:
2023-160F
轨道中心:
EARTH
卫星名称:
星链-30603
卫星全名:
星链-30603 (STARLINK-30603 )
卫星状态:
在轨 (已飞行744 天)
发射日期:
2023-10-18 UTC
国别 :
美国 (US)
星等 :
--
轨道信息
数据来源 国际轨道数据
星历时间: 2025-10-31T02:34:19+0800
12小时前
查看轨道信息
半长轴: 6937.211km
偏心率: 0.0001638
轨道倾角: 43.003°
近地点辐角 265.006°
升交点赤经 66.317°
平近点角 95.060°
近地点: 557.939km
远地点: 560.213km
周期: 95.838分钟
每日圈数: 15.02538
详细信息
固有亮度:
5
最大亮度:
0.3
卫星平台:
Starlink v2.0 mini
覆盖范围:
全球
运营商:
太空探索技术公司
运营商所在国:
美国
制造商(研发单位):
太空探索技术公司
制造商所在国:
美国
使用方式:
暂无
卫星简介
星链(Starlink)计划是由太空探索技术公司(SpaceX)提出的一个巨型低轨卫星互联网星座项目,计划在2019年至2024年间在太空搭建由约1.2万颗卫星组成的“星链”网络,其中1584颗将部署在地球上空550千米处的近地轨道,并从2020年开始工作。该卫星仍在工作。
2D轨道图
3D轨道图
轨道高度分析图
轨道倾角分析图
轨道综合分析图
查看轨道综合分析图